Location: Newark
(36.0797°N, 3.9744°E)
Time: 23:49:14
(UTC+00:00)

Tiros 1 - Pass Details

Date: 11 December 2019
Orbit: 630 x 664 km, 48.4° (Epoch: 21 January)

Event Time Altitude Azimuth Distance (km) Brightness Sun altitude
Exits shadow 04:28:33 35° 176° (S) 1,051 8.3 -26.7°
Maximum altitude 04:29:49 43° 137° (SE) 910 8.2 -26.4°
Drops below altitude 10° 04:34:16 10° 66° (ENE) 2,037 10.4 -25.5°
Sets 04:36:40 0° 60° (ENE) 2,943 11.2 -25.1°
